Location: St. Louis
(38.6270°N, 90.1994°W)
Time: 09:20:17
(UTC-06:00)

SR - Pass Details

Date: 06 December 2021
Orbit: 582 x 872 km, 66.7° (Epoch: 21 January)

Event Time Altitude Azimuth Distance (km) Brightness Sun altitude
Rises 21:42:38 0° 186° (S) 3,035 - -58.1°
Reaches altitude 10° 21:45:11 10° 177° (S) 2,076 - -58.6°
Maximum altitude 21:49:23 34° 112° (ESE) 1,039 - -59.3°
Drops below altitude 10° 21:53:21 10° 48° (NE) 1,961 - -60.0°
Sets 21:55:42 0° 39° (NE) 2,843 - -60.5°
